This is the latest recevied weather packets stored in our database for station/object K0SDS. If no packets are shown the sender has not sent any weather packets the latest 10 day(s).
| Time | Temp. | Humidity | Pressure | Rain* | Wind** | Luminosity | Snow |
|---|---|---|---|---|---|---|---|
| 1777425271 | 12.78° C | 74% | 1015.5 hPa | 0 mm | - | 0 W/m² | - |
| 1777424969 | 12.78° C | 73% | 1015.2 hPa | 0 mm | - | 1 W/m² | - |
| 1777424664 | 13.33° C | 73% | 1015.3 hPa | 0 mm | - | 5 W/m² | - |
| 1777424359 | 13.33° C | 72% | 1014.9 hPa | 0 mm | - | 7 W/m² | - |
| 1777424055 | 13.89° C | 70% | 1014.9 hPa | 0 mm | - | 10 W/m² | - |
| 1777423753 | 13.89° C | 71% | 1015 hPa | 0 mm | - | 13 W/m² | - |
| 1777423448 | 13.89° C | 70% | 1014.6 hPa | 0 mm | - | 17 W/m² | - |
| 1777423144 | 13.89° C | 70% | 1014.6 hPa | 0 mm | - | 20 W/m² | - |
| 1777422838 | 13.89° C | 70% | 1014.3 hPa | 0 mm | - | 24 W/m² | - |
| 1777422533 | 14.44° C | 70% | 1014.5 hPa | 0 mm | - | 28 W/m² | - |
| 1777422229 | 14.44° C | 72% | 1014.4 hPa | 0 mm | - | 31 W/m² | - |
| 1777421923 | 14.44° C | 70% | 1014.4 hPa | 0 mm | - | 36 W/m² | - |
| 1777421619 | 15° C | 71% | 1014.3 hPa | 0 mm | - | 70 W/m² | - |
| 1777421314 | 14.44° C | 70% | 1014.4 hPa | 0 mm | - | 78 W/m² | - |
| 1777421011 | 14.44° C | 70% | 1014.4 hPa | 0 mm | - | 89 W/m² | - |
| 1777420707 | 15° C | 68% | 1014.5 hPa | 0 mm | - | 40 W/m² | - |
| 1777420404 | 15.56° C | 68% | 1013.9 hPa | 0 mm | - | 42 W/m² | - |
| 1777420100 | 15.56° C | 68% | 1014.1 hPa | 0 mm | - | 121 W/m² | - |
| 1777419796 | 15.56° C | 69% | 1013.8 hPa | 0 mm | - | 129 W/m² | - |
| 1777419494 | 15.56° C | 68% | 1013.8 hPa | 0 mm | - | 61 W/m² | - |
| 1777419193 | 16.11° C | 63% | 1013.8 hPa | 0 mm | - | 57 W/m² | - |
| 1777418889 | 17.22° C | 61% | 1013.7 hPa | 0 mm | - | 67 W/m² | - |
| 1777418585 | 17.22° C | 61% | 1013.4 hPa | 0 mm | - | 211 W/m² | - |
| 1777418281 | 16.67° C | 63% | 1013.3 hPa | 0 mm | - | 239 W/m² | - |
| 1777417976 | 16.67° C | 66% | 1013.6 hPa | 0 mm | - | 189 W/m² | - |
* Rain latest hour (hover to see other rain measurements)
** Current wind speed in m/s (hover to see current wind gust speed)